This is the latest recevied weather packets stored in our database for station/object KE6LRO. If no packets are shown the sender has not sent any weather packets the latest 10 day(s).
| Time | Temp. | Humidity | Pressure | Rain* | Wind** | Luminosity | Snow |
|---|---|---|---|---|---|---|---|
| 1778126307 | 13.33° C | 60% | 1016.3 hPa | 0 mm | - | 0 W/m² | - |
| 1778126002 | 13.89° C | 61% | 1016.3 hPa | 0 mm | - | 0 W/m² | - |
| 1778125700 | 13.89° C | 62% | 1016.3 hPa | 0 mm | - | 0 W/m² | - |
| 1778125397 | 13.89° C | 57% | 1016.3 hPa | 0 mm | - | 0 W/m² | - |
| 1778125095 | 13.89° C | 60% | 1015.9 hPa | 0 mm | - | 0 W/m² | - |
| 1778124792 | 14.44° C | 59% | 1016.2 hPa | 0 mm | - | 0 W/m² | - |
| 1778124489 | 14.44° C | 60% | 1016.1 hPa | 0 mm | - | 0 W/m² | - |
| 1778124185 | 14.44° C | 51% | 1016.1 hPa | 0 mm | - | 0 W/m² | - |
| 1778123882 | 15° C | 55% | 1016.2 hPa | 0 mm | - | 0 W/m² | - |
| 1778123579 | 15.56° C | 54% | 1015.7 hPa | 0 mm | - | 0 W/m² | - |
| 1778123275 | 15° C | 54% | 1015.7 hPa | 0 mm | - | 0 W/m² | - |
| 1778122973 | 15° C | 54% | 1015.7 hPa | 0 mm | - | 1 W/m² | - |
| 1778122670 | 15.56° C | 52% | 1015.8 hPa | 0 mm | - | 1 W/m² | - |
| 1778122367 | 16.11° C | 51% | 1015.7 hPa | 0 mm | - | 2 W/m² | - |
| 1778122065 | 17.78° C | 50% | 1015.5 hPa | 0 mm | - | 2 W/m² | - |
| 1778121762 | 18.33° C | 38% | 1015.5 hPa | 0 mm | - | 4 W/m² | - |
| 1778121457 | 17.78° C | 40% | 1015.7 hPa | 0 mm | - | 5 W/m² | - |
| 1778121155 | 18.89° C | 42% | 1015.7 hPa | 0 mm | - | 7 W/m² | - |
| 1778120852 | 18.89° C | 37% | 1015.7 hPa | 0 mm | - | 10 W/m² | - |
| 1778120548 | 19.44° C | 40% | 1015.6 hPa | 0 mm | - | 12 W/m² | - |
| 1778120244 | 18.89° C | 45% | 1015.5 hPa | 0 mm | - | 15 W/m² | - |
| 1778119940 | 19.44° C | 41% | 1015.6 hPa | 0 mm | - | 18 W/m² | - |
| 1778119639 | 19.44° C | 43% | 1015.6 hPa | 0 mm | - | 21 W/m² | - |
| 1778119334 | 19.44° C | 38% | 1015.6 hPa | 0 mm | - | 23 W/m² | - |
| 1778119032 | 19.44° C | 46% | 1015.4 hPa | 0 mm | - | 29 W/m² | - |
* Rain latest hour (hover to see other rain measurements)
** Current wind speed in m/s (hover to see current wind gust speed)